Location: Beetenbrück
(52.8113°N, 9.5946°E)
Time: 22:02:13
(UTC+00:00)

COSMO-SKYMED 1 - Pass Details

Date: 14 April 2026
Orbit: 575 x 577 km, 97.9° (Epoch: 12 May)

Event Time Altitude Azimuth Distance (km) Brightness Sun altitude
Rises 18:52:21 0° 8° (N) 2,805 6.1 -5.5°
Reaches altitude 10° 18:54:38 10° 0° (N) 1,901 5.4 -5.8°
Maximum altitude 18:58:24 36° 294° (WNW) 921 4.3 -6.3°
Drops below altitude 10° 19:02:10 10° 227° (SW) 1,887 5.3 -6.9°
Sets 19:04:25 0° 219° (SW) 2,780 6.1 -7.2°
